Location: Doschendorf
(50.0069°N, 11.0602°E)
Time: 06:26:54
(UTC+00:00)

Cosmos 2142 Rocket - Pass Details

Date: 17 November 2019
Orbit: 953 x 1004 km, 83.0° (Epoch: 05 December)

Event Time Altitude Azimuth Distance (km) Brightness Sun altitude
Rises 18:10:46 0° 351° (N) 3,745 7.7 -25.6°
Reaches altitude 10° 18:13:20 10° 353° (N) 2,790 7.0 -26.1°
Maximum altitude 18:19:46 76° 79° (E) 1,037 4.4 -27.1°
Enters shadow 18:20:59 59° 144° (SE) 1,149 4.6 -27.3°
